Powrót do katalogu

COSMOS 249 DEB

AktywnyLEO
NORAD 14412·DEBRIS·🇷🇺 Russia

Wystrzelony Oct 20, 1968 z Baikonur Cosmodrome

Loading…

Następne Przeloty (najbliższe 24 godziny)

TLE

ŚwieżeSource: Space-Track

Epoka: Sep 14, 2026, 20:46 UTC

1 14412U 68091CN  26257.86536515  .00001074  00000-0  13943-2 0  9991
2 14412  62.2926 213.8932 0750686 351.1864   7.6526 12.84366978 98691

Śledź COSMOS 249 DEB w czasie rzeczywistym z AllMySat

Download on the App Store